Regional Weather Roundup
Issued by NWS Newport/Morehead, NC

Current Version | Previous Version | Text Only | Print | Product List | Glossary On
Versions: 1 2 3 4 5 6 7 8 9 10 11 12 13 14 15 16 17 18 19 20 21 22 23 24 25 26 27 28 29 30 31 32 33 34 35 36 37 38 39 40 41 42 43 44 45 46 47 48 49 50
000
ASUS42 KMHX 220513
RWRMHX
WEATHER ROUNDUP FOR EASTERN NORTH CAROLINA
NATIONAL WEATHER SERVICE NEWPORT/MOREHEAD CITY NC
100 AM EDT SUN OCT 22 2017

NOTE: "FAIR" INDICATES FEW OR NO CLOUDS BELOW 12,000 FEET
WITH NO SIGNIFICANT WEATHER AND/OR OBSTRUCTIONS TO VISIBILITY

NCZ015>017-031-032-045>047-102-103-220600-
NORTH COAST

CITY           SKY/WX    TMP DP  RH WIND       PRES   REMARKS
EDENTON        CLEAR     58  56  93 CALM      30.35S
ELIZABETH CITY PTCLDY    58  58 100 CALM      30.34F
KITTY HAWK     PTCLDY    65  58  77 CALM      30.33F
MANTEO         CLOUDY   N/A N/A N/A CALM      30.34F

$$

NCZ045>047-081-094-103-104-220600-
CENTRAL COAST

CITY           SKY/WX    TMP DP  RH WIND       PRES   REMARKS
FRISCO         CLOUDY    68  65  90 NE6       30.32F

$$

NCZ095-097-098-100-101-220600-
SOUTHERN COAST

CITY           SKY/WX    TMP DP  RH WIND       PRES   REMARKS
BEAUFORT       PTCLDY    61  59  93 NE3       30.32F
CEDAR ISLAND   NOT AVBL
JACKSONVILLE   CLOUDY    60  58  92 CALM      30.32F
PINEY ISLAND     N/A    N/A N/A N/A E6        30.32F
WILMINGTON     PTCLDY    58  58 100 CALM      30.32S


$$

NCZ011>013-027>030-043-044-078>080-089-090>093-098-220600-
COASTAL PLAIN

CITY           SKY/WX    TMP DP  RH WIND       PRES   REMARKS
AHOSKIE        CLOUDY    54  54 100 CALM      30.35S
CLINTON        CLOUDY    57  57  99 CALM      30.33F
ELIZABETHTOWN  NOT AVBL
GOLDSBORO      PTCLDY    57  54  88 CALM      30.32S FOG
GREENVILLE     FOG       55  55 100 CALM      30.34F VSB 1/2
HAVELOCK         N/A     58  57  97 CALM      30.33F
KENANSVILLE    CLOUDY    54  54 100 CALM      30.34R FOG
KINSTON        CLOUDY    55  53  94 CALM      30.34F
NEW BERN       PTCLDY    58  58 100 CALM      30.34F FOG
RICHLANDS      PTCLDY    55  54  96 N3        30.33F
ROCKY MOUNT    PTCLDY    55  55 100 CALM      30.34S FOG
WASHINGTON     CLOUDY    58  57  95 CALM      30.34F
WHITEVILLE     NOT AVBL

$$

AMZ130-135-150-152-154-156-158-170-250-252-270-ANZ085-086-088-633-658-670-220600-
MARINE OBSERVATIONS

STATION/POSITION TIME  TEMP    WIND        PRES    WAVE   SWELL
                       AIR SEA DIR/SP/G            HT/PER HT/PER
                 (UTC) (F)     (DEG/KT/KT) (MB)    (FT/S) (FT/S)
CHESAPEAKE LIGHT NOT AVBL
64 E VA BEACH    0450   68 69   60/  2/  4 1028.1    3/ 8   3/ 8
DUCK             0448   68 70   90/  7/  8 1027.0
2 E DUCK         0500      70                N/A     2/ 9
OREGON INLET     0436   69 72   50/  5/  7 1027.2
13E OREGON INLT  0418      73                N/A     2/ 8   2/ 8
HATTERAS CG      0448   69 72   50/  5/  7 1026.6
DIAMOND BUOY     0450   75 81   80/  8/ 10 1026.5    3/ 8   3/ 8
CAPE LOOKOUT     0500   73      50/  9/ 10 1026.3
BEAUFORT LAB     0448   65 73   50/  3/  4 1026.9
30 SE NEW RVR IN 0408   74      60/ 12/ 16 1026.5
30 SE NEW RVR IN NOT AVBL
27 SE WRIGHTSVLE 0408   74 76   90/ 12/ 17 1026.3
5 SE WRIGHTSVLE  0408   73 74   90/ 12/ 17 1026.4
225 S CAPE HAT   0450   76 80   90/ 12/ 14 1025.4    4/ 8   3/ 8
41 SE CHARLESTON 0500   78 79  100/ 12/ 17 1024.2

$$



USA.gov is the U.S. government's official web portal to all federal, state and local government web resources and services.